SKYNET 4C

Last updated on Thu Nov 21 2024 00:02:40 GMT+0000 (Coordinated Universal Time)

1 20776U 90079A 24325.21368774 .00000123 00000+0 00000+0 0 9995 2 20776 13.5250 353.7229 0003873 253.3601 282.8731 1.00272383125131
UTC large
Height (km)
Speed (km/s)
/
Latitude / Longitude
Inclination (degrees)
Orbital Period (minutes)
Azimuth
Elevation
Range (km)
Doppler Factor

Next 0 passes for location: London (51.5072 / 0.1276)

Sorry there are no passes over London.